Regional Weather Roundup
Issued by NWS Glasgow, MT

Home | Current Version | Previous Version | Text Only | Print | Product List | Glossary On
Versions: 1 2 3 4 5 6 7 8 9 10 11 12 13 14 15 16 17 18 19 20 21 22 23 24 25 26 27 28 29 30 31 32 33 34 35 36 37 38 39 40 41 42 43 44 45 46 47 48 49 50
730
ASUS45 KGGW 131115
RWRGGW
HOURLY REGIONAL WEATHER ROUNDUP FOR NORTHEAST MONTANA
NATIONAL WEATHER SERVICE GLASGOW MONTANA
400 AM MST SAT FEB 13 2016

NOTE: "FAIR" INDICATES FEW OR NO CLOUDS BELOW 12,000 FEET WITH NO
SIGNIFICANT WEATHER AND/OR OBSTRUCTIONS TO VISISBILITY.

NORTHEAST MONTANA


CITY           SKY/WX    TMP DP  RH WIND       PRES   REMARKS
GLASGOW        CLOUDY    18  14  84 E17       29.96F
PLENTYWOOD       N/A     14  12  92 SE12G21     N/A
WOLF POINT     CLOUDY    18  12  77 E10       30.04F
JORDAN           N/A     27  25  92 SE6       29.93F
WINNETT          N/A     30  30 100 CALM        N/A
SIDNEY         CLOUDY    19  12  73 SE9       30.10F
GLENDIVE       CLOUDY    23  19  86 SE7       30.05F
MALTA            N/A     23  23 100 E5          N/A
SCOBEY           N/A     15   3  59 SE22G28   29.98F WCI  -3

FORT PECK REPORTS


CITY           SKY/WX    TMP DP  RH WIND       PRES   REMARKS
FORT PECK        N/A     18  17  96 NE17        N/A
THE PINES        N/A     24  23  96 E3          N/A

SOUTHEAST MONTANA


CITY           SKY/WX    TMP DP  RH WIND       PRES   REMARKS
BILLINGS       CLOUDY    33  29  85 SW13      29.93F
MILES CITY     CLOUDY    29  24  82 SE12      29.97F
BAKER          CLOUDY    20  16  84 SE18G29   30.02F
LIVINGSTON     CLOUDY    48  24  39 SW36G44   29.93F

CENTRAL MONTANA


CITY           SKY/WX    TMP DP  RH WIND       PRES   REMARKS
HAVRE          FOG       22  22 100 SW3       29.88F VSB 1/4
LEWISTOWN      CLOUDY    38  30  73 E6        29.88F
GREAT FALLS    CLEAR     35  28  75 NE3       29.86S
CUT BANK       CLOUDY    41  30  65 SW10      29.86R
HELENA         PTCLDY    32  30  92 SW5       29.92F
BUTTE          MIX PCPN  39  29  67 W20G28    30.01R
BOZEMAN        CLOUDY    29  26  89 CALM      29.98F

WESTERN MONTANA


CITY           SKY/WX    TMP DP  RH WIND       PRES   REMARKS
MISSOULA       LGT RAIN  37  37 100 N5        30.07R
KALISPELL      NOT AVBL

NORTH DAKOTA


CITY           SKY/WX    TMP DP  RH WIND       PRES   REMARKS
WILLISTON      CLOUDY    13   8  81 SE12      30.14F WCI  -1
DICKINSON      CLOUDY    11   7  84 SE23G32   30.10F WCI  -9
MINOT          CLOUDY     8  -5  55 SE9       30.29F
BISMARCK       CLOUDY     9   0  67 SE10      30.35F WCI  -5

SOUTHERN SASKATCHEWAN


CITY           SKY/WX    TMP DP  RH WIND       PRES   REMARKS
REGINA         FLURRIES  10   5  79 SE23G33   30.07F WCI -10
ESTEVAN        NOT AVBL
SWIFT CURRENT  LGT SNOW  19  19 100 S25G32    29.80F





USA.gov is the U.S. government's official web portal to all federal, state and local government web resources and services.